Lamezia Terme, Italy

12:19 AM CEST on August 28, 2016 (GMT +0200)
Terme

Weather History for LICA - May, 2013

Change the Weather History Date:

Saturday, May 4, 2013

  Actual Average Record
Temperature  
Mean Temperature 72 °F -  
Max Temperature 84 °F 71 °F 84 °F (2013)
Min Temperature 60 °F 57 °F 51 °F (2016)
Cooling Degree Days 7    
Growing Degree Days 22 (Base 50)    
Moisture  
Dew Point 54 °F    
Average Humidity 56    
Maximum Humidity 82    
Minimum Humidity 32    
Precipitation  
Precipitation 0.00 in - - ()
Sea Level Pressure  
Sea Level Pressure 29.95 in    
Wind  
Wind Speed 9 mph ()    
Max Wind Speed 24 mph    
Max Gust Speed -    
Visibility 6.2 miles    
Events      
Averages and records for this station are not official NWS values.
T = Trace of Precipitation, MM = Missing Value Source: Averaged Metar Reports

Daily Weather History Graph

Daily Weather History Graph

Search for Another Location

Airport or City:

Trip Planner

Search our weather history database for the weather conditions in past years. The results will help you decide how hot, cold, wet, or windy it might be!

Date:

Astronomy

May. 04, 2013 Rise Set
Actual Time 5:53 AM CEST 7:50 PM CEST
Civil Twilight 5:24 AM CEST 8:19 PM CEST
Nautical Twilight 4:49 AM CEST 8:55 PM CEST
Astronomical Twilight 4:11 AM CEST 9:33 PM CEST
Moon 2:39 AM CEST (5/4) 2:32 PM CEST (5/4)
Length of Visible Light 14h 54m
Length of Day
13h 56m
Waning Crescent, 29% of the Moon is Illuminated
May 4
Waning Crescent
May 10
New
May 18
First Quarter
May 25
Full
May 31
Last Quarter

Hourly Weather History & Observations

Time (CEST) Temp. Heat Index Dew Point Humidity Pressure Visibility Wind Dir Wind Speed Gust Speed Precip Events Conditions
12:50 AM 62.6 °F - 57.2 °F 82% 29.95 in - East 5.8 mph - N/A   Clear
1:50 AM 62.6 °F - 57.2 °F 82% 29.95 in - ENE 4.6 mph - N/A   Clear
2:50 AM 60.8 °F - 55.4 °F 82% 29.95 in - East 5.8 mph - N/A   Clear
3:50 AM 60.8 °F - 55.4 °F 82% 29.95 in - ENE 4.6 mph - N/A   Clear
4:50 AM 60.8 °F - 55.4 °F 82% 29.95 in - SSW 4.6 mph - N/A   Clear
5:50 AM 62.6 °F - 55.4 °F 77% 29.98 in - Variable 3.5 mph - N/A   Clear
6:50 AM 62.6 °F - 57.2 °F 82% 29.95 in - Variable 3.5 mph - N/A   Unknown
7:50 AM 66.2 °F - 59.0 °F 78% 29.98 in - Variable 3.5 mph - N/A   Partly Cloudy
8:50 AM 71.6 °F - 60.8 °F 69% 29.95 in - East 15.0 mph - N/A   Partly Cloudy
9:50 AM 80.6 °F 80.8 °F 57.2 °F 45% 29.95 in - ENE 17.3 mph - N/A   Partly Cloudy
10:50 AM 82.4 °F 81.7 °F 55.4 °F 39% 29.95 in - East 19.6 mph - N/A   Clear
11:50 AM 82.4 °F 81.7 °F 55.4 °F 39% 29.95 in - East 23.0 mph - N/A   Clear
12:50 PM 82.4 °F 81.4 °F 53.6 °F 37% 29.95 in - East 24.2 mph - N/A   Clear
1:50 PM 84.2 °F - 51.8 °F 33% 29.95 in - East 21.9 mph - N/A   Clear
2:50 PM 84.2 °F 82.8 °F 53.6 °F 35% 29.95 in - East 20.7 mph - N/A   Clear
3:50 PM 82.4 °F - 51.8 °F 35% 29.92 in - East 21.9 mph - N/A   Clear
4:50 PM 82.4 °F - 50.0 °F 32% 29.89 in - East 24.2 mph - N/A   Clear
5:50 PM 80.6 °F - 50.0 °F 34% 29.92 in - East 20.7 mph - N/A   Clear
6:50 PM 77.0 °F - 51.8 °F 41% 29.92 in - ENE 15.0 mph - N/A   Clear
7:50 PM 73.4 °F - 51.8 °F 47% 29.98 in - East 13.8 mph - N/A   Clear
8:50 PM 73.4 °F - 51.8 °F 47% 29.98 in - ENE 10.4 mph - N/A   Clear
9:50 PM 71.6 °F - 51.8 °F 50% 29.92 in 6.2 mi East 12.7 mph - N/A   Partly Cloudy
10:50 PM 71.6 °F - 53.6 °F 53% 29.95 in 6.2 mi NE 6.9 mph - N/A   Partly Cloudy
11:50 PM 71.6 °F - 53.6 °F 53% 29.98 in 6.2 mi Variable 1.2 mph - N/A   Partly Cloudy